FENGYUN 1C DEB, 31256

Orbit data source: Space-Track

FENGYUN 1C DEB, 31256 is space debris in SSO originally from a launch on Mon, 10 May 1999 UTC launched from the Taiyaun Space Center, China (TSC). Fengyun 1C debris stems from the Chinese weather satellite Fengyun-1C, which was intentionally destroyed by a Chinese anti-satellite missile in 2007. This event dramatically increased the amount of space debris, with thousands of trackable fragments posing hazards to satellites and human spaceflight. The Fengyun 1C debris cloud has become a focal point in discussions about space sustainability and the need for international regulations to prevent the creation of new debris.

Loading next visibility...
Identifier
31256, 1999-025BMN
Orbit
SSO
Country
Flag of CNCN / PRC
Related business
Manufacturer
Unknown
Mission
Spacecraft
Bus & Motor
Unknown
Mass
Unknown
Launch date (UTC)
1999-05-10 (27 years ago)
Launch vehicle
Unknown
Launch site
Taiyaun Space Center, China (TSC)
Object type
Payload
Rocket body
Debris
Shape & HBR
Unknown shape, 0.1 m
Radar Cross Section
Small (<0.1 m²)

Expand to show TLE details & history
Last TLE update: 23 hours ago

TLE from 23 hours ago
0 FENGYUN 1C DEB
1 31256U 99025BMN 26235.50520060  .00004395  00000-0  17779-2 0  9992
2 31256  98.6638  77.5075 0301707 118.7583 244.4249 14.06378047685458
Epoch: 2026-08-23T12:07Z
TLE epoch observation values (Epoch: 2026-08-23T12:07:29.331Z)
Latitude
-0.00005°
Longitude
-76.165°
Altitude
974.406 km
Speed
7.314 km/s
True Right ascension
05h 10m 01s
True Declination
0° 00' 00"
Sunlit
Object was in daylight at epoch
Visualization orbit readout
Latitude
Unknown
Longitude
Unknown
Altitude
Unknown
Speed
Unknown
Apparent Right ascension
Unknown
Apparent Declination
Unknown
Sunlit
N/A
Visualization observer readout
Local Sidereal Time
01:55:36
Azimuth
Unknown
Elevation
Unknown
Doppler factor
Unknown
Orbital elements
Apogee altitude
1,087.613 km
Perigee altitude
650.313 km
Semi-major axis
7,247.1 km
Eccentricity
0.03017
Inclination
98.6638°
RAAN
77.5075°
Arg. of periapsis
118.7583°
True anomaly
241.35779°
Mean anomaly
244.4249°
Eccentric anomaly
242.88622°
Mean motion
3.51801 °/min
Orbital period
102.33 mins
BSTAR
0.0017779
Loading maneuver chart data...
Computing Atmospheric mass density...

Documentation

Showing up to 5 results
|